When you browse on this site, cookies collect data to enhance your experience and personalize the content and advertising you see.
Visit our Privacy Policy to learn more. By continuing to use the site, you agree to this use of cookies and data.
  • en France
  • Liste des pays
  • À 7 jours
  • Température de l'eau
  • Carte météo
  • Widgets météo
  • user-avatar
    Se connecter

    Météo par heure à Bafoussam

    Ce jour, 4 Avril, Samedi

    Heure Température Précipitation Vent Pression Humidité
    00:00 +21°C° 2 mm 1 m/s 644 mmHg 93%
    01:00 +20°C° 0 mm 1 m/s 643 mmHg 94%
    02:00 +20°C° 0 mm 1 m/s 643 mmHg 92%
    03:00 +20°C° 0 mm 1 m/s 642 mmHg 91%
    04:00 +20°C° 0 mm 1 m/s 641 mmHg 90%
    05:00 +20°C° 0 mm 1 m/s 642 mmHg 90%
    06:00 +20°C° 0 mm 1 m/s 643 mmHg 91%
    07:00 +20°C° 0 mm 1 m/s 644 mmHg 92%
    08:00 +22°C° 0.2 mm 1 m/s 645 mmHg 86%
    09:00 +24°C° 0.2 mm 1 m/s 645 mmHg 81%
    10:00 +25°C° 0.2 mm 1 m/s 646 mmHg 75%
    11:00 +26°C° 0.2 mm 1 m/s 646 mmHg 72%
    12:00 +27°C° 0.2 mm 1 m/s 646 mmHg 69%
    13:00 +28°C° 0.2 mm 1 m/s 645 mmHg 66%
    14:00 +27°C° 0.5 mm 1 m/s 645 mmHg 69%
    15:00 +26°C° 0.5 mm 1 m/s 644 mmHg 72%
    16:00 +26°C° 0.5 mm 2 m/s 643 mmHg 74%
    17:00 +24°C° 0.7 mm 1 m/s 643 mmHg 80%
    18:00 +23°C° 0.7 mm 1 m/s 644 mmHg 86%
    19:00 +22°C° 0.7 mm 1 m/s 644 mmHg 92%
    20:00 +22°C° 0.4 mm 1 m/s 644 mmHg 93%
    21:00 +21°C° 0.4 mm 1 m/s 645 mmHg 93%
    22:00 +21°C° 0.4 mm 1 m/s 645 mmHg 94%
    23:00 +21°C° 1 mm 1 m/s 645 mmHg 93%

    Demain, 5 Avril, Dimanche

    Heure Température Précipitation Vent Pression Humidité
    00:00 +21°C° 1 mm 1 m/s 645 mmHg 92%
    01:00 +19°C° 1 mm 0 m/s 645 mmHg 91%
    02:00 +21°C° 0 mm 1 m/s 644 mmHg 91%
    03:00 +21°C° 0 mm 1 m/s 643 mmHg 91%
    04:00 +20°C° 0 mm 1 m/s 643 mmHg 91%
    05:00 +20°C° 0 mm 1 m/s 643 mmHg 89%
    06:00 +19°C° 0 mm 0 m/s 644 mmHg 88%
    07:00 +19°C° 0 mm 0 m/s 644 mmHg 87%
    08:00 +21°C° 0 mm 0 m/s 645 mmHg 79%
    09:00 +24°C° 0 mm 0 m/s 646 mmHg 71%
    10:00 +26°C° 0 mm 0 m/s 647 mmHg 63%
    11:00 +29°C° 0.3 mm 1 m/s 647 mmHg 60%
    12:00 +29°C° 0.3 mm 1 m/s 646 mmHg 57%
    13:00 +30°C° 0.3 mm 1 m/s 646 mmHg 55%
    14:00 +29°C° 0.8 mm 1 m/s 645 mmHg 58%
    15:00 +29°C° 0.8 mm 2 m/s 644 mmHg 60%
    16:00 +28°C° 0.8 mm 2 m/s 643 mmHg 63%
    17:00 +26°C° 1.4 mm 2 m/s 643 mmHg 71%
    18:00 +24°C° 1.4 mm 1 m/s 643 mmHg 78%
    19:00 +23°C° 1.4 mm 1 m/s 642 mmHg 85%
    20:00 +22°C° 0.7 mm 1 m/s 643 mmHg 85%
    21:00 +22°C° 0.7 mm 1 m/s 644 mmHg 85%
    22:00 +22°C° 0.7 mm 1 m/s 644 mmHg 85%
    23:00 +22°C° 0.2 mm 1 m/s 644 mmHg 85%

    Après-demain, 6 Avril, Lundi

    Heure Température Précipitation Vent Pression Humidité
    00:00 +21°C° 0.2 mm 1 m/s 644 mmHg 85%
    01:00 +21°C° 0.2 mm 1 m/s 643 mmHg 85%
    02:00 +21°C° 0.7 mm 1 m/s 643 mmHg 85%
    03:00 +21°C° 0.7 mm 1 m/s 643 mmHg 86%
    04:00 +20°C° 0.7 mm 1 m/s 643 mmHg 87%
    05:00 +19°C° 0.2 mm 0 m/s 643 mmHg 87%
    06:00 +19°C° 0.2 mm 0 m/s 644 mmHg 88%
    07:00 +19°C° 0.2 mm 0 m/s 644 mmHg 88%
    08:00 +21°C° 0.2 mm 0 m/s 645 mmHg 82%
    09:00 +25°C° 0.2 mm 1 m/s 646 mmHg 76%
    10:00 +27°C° 0.2 mm 1 m/s 647 mmHg 70%
    11:00 +27°C° 1.1 mm 1 m/s 646 mmHg 69%
    12:00 +28°C° 1.1 mm 1 m/s 646 mmHg 68%
    13:00 +28°C° 1.1 mm 1 m/s 645 mmHg 67%
    14:00 +27°C° 1.7 mm 1 m/s 645 mmHg 70%
    15:00 +27°C° 1.7 mm 1 m/s 644 mmHg 73%
    16:00 +26°C° 1.7 mm 1 m/s 643 mmHg 76%
    17:00 +25°C° 0.7 mm 1 m/s 643 mmHg 80%
    18:00 +24°C° 0.7 mm 1 m/s 643 mmHg 84%
    19:00 +22°C° 0.7 mm 1 m/s 643 mmHg 89%
    20:00 +22°C° 0.4 mm 1 m/s 644 mmHg 89%
    21:00 +22°C° 0.4 mm 1 m/s 644 mmHg 90%
    22:00 +19°C° 0.4 mm 0 m/s 644 mmHg 91%
    23:00 +21°C° 1.2 mm 1 m/s 644 mmHg 92%

    7 Avril, Mardi

    Heure Température Précipitation Vent Pression Humidité
    00:00 +20°C° 1.2 mm 1 m/s 644 mmHg 93%
    01:00 +20°C° 1.2 mm 1 m/s 644 mmHg 94%
    02:00 +20°C° 0.4 mm 1 m/s 643 mmHg 93%
    03:00 +20°C° 0.4 mm 1 m/s 643 mmHg 91%
    04:00 +20°C° 0.4 mm 1 m/s 643 mmHg 89%
    05:00 +21°C° 0 mm 1 m/s 643 mmHg 88%
    06:00 +21°C° 0 mm 1 m/s 643 mmHg 87%
    07:00 +21°C° 0 mm 1 m/s 644 mmHg 86%
    08:00 +21°C° 0 mm 1 m/s 644 mmHg 86%
    09:00 +22°C° 0 mm 1 m/s 645 mmHg 86%
    10:00 +23°C° 0 mm 2 m/s 646 mmHg 86%
    11:00 +24°C° 0.1 mm 2 m/s 645 mmHg 81%
    12:00 +25°C° 0.1 mm 1 m/s 645 mmHg 76%
    13:00 +27°C° 0.1 mm 1 m/s 645 mmHg 71%
    14:00 +27°C° 1.2 mm 1 m/s 644 mmHg 71%
    15:00 +26°C° 1.2 mm 1 m/s 644 mmHg 71%
    16:00 +26°C° 1.2 mm 1 m/s 643 mmHg 70%
    17:00 +25°C° 0.4 mm 1 m/s 643 mmHg 75%
    18:00 +23°C° 0.4 mm 1 m/s 643 mmHg 81%
    19:00 +22°C° 0.4 mm 1 m/s 642 mmHg 86%
    20:00 +22°C° 0 mm 1 m/s 643 mmHg 86%
    21:00 +21°C° 0 mm 1 m/s 643 mmHg 87%
    22:00 +21°C° 0 mm 1 m/s 643 mmHg 87%
    23:00 +19°C° 0.1 mm 0 m/s 643 mmHg 87%

    8 Avril, Mercredi

    Heure Température Précipitation Vent Pression Humidité
    00:00 +18°C° 0.1 mm 0 m/s 643 mmHg 87%
    01:00 +18°C° 0.1 mm 0 m/s 643 mmHg 87%
    02:00 +18°C° 0.1 mm 0 m/s 643 mmHg 87%
    03:00 +20°C° 0.1 mm 1 m/s 643 mmHg 87%
    04:00 +20°C° 0.1 mm 1 m/s 642 mmHg 87%
    05:00 +20°C° 0.1 mm 1 m/s 643 mmHg 87%
    06:00 +20°C° 0.1 mm 1 m/s 643 mmHg 87%
    07:00 +21°C° 0.1 mm 1 m/s 643 mmHg 87%
    08:00 +22°C° 0.4 mm 1 m/s 644 mmHg 81%
    09:00 +24°C° 0.4 mm 1 m/s 645 mmHg 76%
    10:00 +26°C° 0.4 mm 1 m/s 646 mmHg 71%
    11:00 +27°C° 1.2 mm 1 m/s 645 mmHg 69%
    12:00 +27°C° 1.2 mm 1 m/s 645 mmHg 68%
    13:00 +28°C° 1.2 mm 1 m/s 644 mmHg 66%
    14:00 +27°C° 2.1 mm 1 m/s 643 mmHg 71%
    15:00 +26°C° 2.1 mm 1 m/s 643 mmHg 76%
    16:00 +25°C° 2.1 mm 1 m/s 642 mmHg 81%
    17:00 +24°C° 0.8 mm 1 m/s 642 mmHg 83%
    18:00 +23°C° 0.8 mm 1 m/s 642 mmHg 86%
    19:00 +22°C° 0.8 mm 1 m/s 642 mmHg 89%
    20:00 +21°C° 0.1 mm 1 m/s 642 mmHg 90%
    21:00 +21°C° 0.1 mm 1 m/s 643 mmHg 91%
    22:00 +21°C° 0.1 mm 1 m/s 643 mmHg 92%
    23:00 +21°C° 0.1 mm 1 m/s 643 mmHg 91%

    9 Avril, Jeudi

    Heure Température Précipitation Vent Pression Humidité
    00:00 +21°C° 0.1 mm 1 m/s 643 mmHg 91%
    01:00 +20°C° 0.1 mm 1 m/s 643 mmHg 91%
    02:00 +20°C° 0.2 mm 1 m/s 643 mmHg 92%
    03:00 +18°C° 0.2 mm 0 m/s 642 mmHg 94%
    04:00 +18°C° 0.2 mm 0 m/s 642 mmHg 96%
    05:00 +18°C° 0.1 mm 0 m/s 643 mmHg 95%
    06:00 +18°C° 0.1 mm 0 m/s 643 mmHg 94%
    07:00 +18°C° 0.1 mm 0 m/s 643 mmHg 93%
    08:00 +19°C° 0 mm 0 m/s 644 mmHg 89%
    09:00 +19°C° 0 mm 0 m/s 644 mmHg 86%
    10:00 +20°C° 0 mm 0 m/s 645 mmHg 83%
    11:00 +22°C° 0.3 mm 1 m/s 644 mmHg 82%
    12:00 +23°C° 0.3 mm 1 m/s 644 mmHg 81%
    13:00 +23°C° 0.3 mm 1 m/s 644 mmHg 80%
    14:00 +23°C° 0.6 mm 1 m/s 643 mmHg 80%
    15:00 +21°C° 0.6 mm 0 m/s 643 mmHg 80%
    16:00 +21°C° 0.6 mm 0 m/s 643 mmHg 81%
    17:00 +20°C° 0.3 mm 0 m/s 643 mmHg 84%
    18:00 +21°C° 0.3 mm 1 m/s 643 mmHg 87%
    19:00 +20°C° 0.3 mm 1 m/s 643 mmHg 90%
    20:00 +20°C° 0.2 mm 1 m/s 643 mmHg 91%
    21:00 +20°C° 0.2 mm 1 m/s 643 mmHg 92%
    22:00 +20°C° 0.2 mm 1 m/s 643 mmHg 93%
    23:00 +19°C° 0 mm 1 m/s 643 mmHg 94%
    Voir plus